Regional Weather Roundup
Issued by NWS

Home | Current Version | Previous Version | Text Only | Print | Product List | Glossary Off
Versions: 1 2 3 4 5 6 7 8 9 10 11 12 13 14 15 16 17 18 19 20 21 22 23 24 25 26 27 28

000
ASUS45 KSLC 180510
RWRUT

UTAH REGIONAL WEATHER ROUNDUP
NATIONAL WEATHER SERVICE SALT LAKE CITY UT
1100 PM MDT THU APR 17 2014

UTZ001>011-023>025-180600-

NORTHERN UTAH

CITY           SKY/WX    TMP DP  RH WIND       PRES   REMARKS
HILL AFB       CLEAR     59  25  27 SE10      29.84F
LOGAN          PTCLDY    45  35  68 W3        29.86F
OGDEN          PTCLDY    59  28  30 S9        29.83F
PROVO AIRPORT  PTCLDY    57  36  44 SE10      29.89S
SALT LAKE CITY PTCLDY    61  29  29 SE12      29.82F
VERNAL         CLEAR     49  25  39 CALM      30.00R
WENDOVER       CLOUDY    64  27  24 NE8       29.78S
HEBER CITY     PTCLDY    41  28  60 CALM      29.95S
WEST JORDAN    CLEAR     61  34  36 S14       29.85F

$$

UTZ012>022-026-027-180600-

SOUTHERN UTAH

CITY           SKY/WX    TMP DP  RH WIND       PRES   REMARKS
BRYCE CANYON   CLEAR     37  23  56 W6        30.13R WCI  32
CEDAR CITY     PTCLDY    51  19  28 SW6       29.99S
MILFORD        PTCLDY    58  22  24 S12       29.94R
MOAB/CYNLANDS  CLEAR     52  21  29 CALM      29.96F
PRICE          CLEAR     48  18  30 NE6       30.04R
ST GEORGE      PTCLDY    70  21  16 SE10      29.88R
KANAB            N/A     52  21  30 NE6       30.03R

$$

REGIONAL REPORTS     COLORADO/ARIZONA

CITY           SKY/WX    TMP DP  RH WIND       PRES   REMARKS
CRAIG, CO      CLEAR     38  26  62 CALM      30.06R
GRAND JUNCTION PTCLDY    50  26  39 E6        30.02S
RIFLE          CLEAR     45  29  53 CALM      30.07R
MONTROSE       PTCLDY    47  28  47 SE8       30.10R
CORTEZ         CLEAR     43  24  47 CALM      30.12R
PAGE, AZ       CLEAR     70  22  16 SW9       29.94R
GRAND CANYON   PTCLDY    38  14  37 CALM      30.13R
KINGMAN        MOCLDY    68  17  14 S12       29.94R
FLAGSTAFF      PTCLDY    46  18  32 CALM      30.16R

$$

REGIONAL REPORTS    NEVADA/IDAHO/WYOMING

CITY           SKY/WX    TMP DP  RH WIND       PRES   REMARKS
LAS VEGAS, NV  CLOUDY    79  20  11 S15       29.78R
ELY            CLOUDY    58  21  24 S15       29.93F
ELKO           CLOUDY    59  30  33 SW3       29.79R
POCATELLO, ID  CLEAR     60  24  25 S23G32    29.77F
BURLEY         MOCLDY    61  29  29 S20       29.72F
EVANSTON, WY   PTCLDY    47  23  38 S8        29.99F
ROCK SPRINGS   CLEAR     46  20  35 SW10      30.01R

$$



USA.gov is the U.S. government's official web portal to all federal, state and local government web resources and services.